Check out our new BloomSky Weather System.

Active alerts


No alerts


Thunder radar  blitzortung!


Rain radar more information rain snow radar


Visit our other weather sites:

Template documentation
and downloads

And another site



Weather Underground History page Text

Daily Summary for May 31, 2017 Units:  English    Metric   Both
« Previous Day
Next Day »
Daily Weekly Monthly Yearly Custom
  High: Low: Average:
Temperature: TemperatureF °F 71.8 °F 79.3 °F
Dew Point: DewpointF °F 70.5 °F 72.3 °F
Humidity: Humidity % 58 % 80 %
Wind Speed: WindSpeedMPH mph 0.0 mph 1.3 mph
Wind Gust: WindSpeedGustMPH mph - -
Wind:- - SE
Pressure: PressureIn in 29.92 in -
Precipitation: 0.00 in    
Historical Graphs
 
 
Tabular Data for May 31, 2017
Time Temperature Dew Point Pressure Wind Wind Speed Wind Gust Humidity Rainfall Rate (Hourly)
TemperatureF °F DewpointF °F PressureIn in Calm     Humidity % HourlyPrecipIn in
00:01 76.3 °F 72.1 °F 29.99 in ESE 4.0 mph 7.0 mph 87 % 0.00 in
00:06 76.3 °F 72.1 °F 29.99 in East 4.0 mph 6.0 mph 87 % 0.00 in
00:11 76.1 °F 72.0 °F 29.99 in East 2.0 mph 5.0 mph 87 % 0.00 in
00:16 75.9 °F 71.8 °F 29.99 in Calm   5.0 mph 87 % 0.00 in
00:21 75.7 °F 72.0 °F 29.99 in Calm   5.0 mph 88 % 0.00 in
00:26 75.7 °F 72.0 °F 29.99 in East 1.0 mph 5.0 mph 88 % 0.00 in
00:31 75.6 °F 71.8 °F 29.99 in Calm   5.0 mph 88 % 0.00 in
00:36 75.6 °F 71.8 °F 29.99 in Calm   3.0 mph 88 % 0.00 in
00:41 75.4 °F 72.0 °F 29.99 in Calm   3.0 mph 89 % 0.00 in
00:46 75.4 °F 72.0 °F 29.99 in ESE 2.0 mph 4.0 mph 89 % 0.00 in
00:51 75.2 °F 71.8 °F 29.99 in Calm   4.0 mph 89 % 0.00 in
00:56 75.0 °F 71.6 °F 29.99 in SE 1.0 mph 4.0 mph 89 % 0.00 in
01:01 75.0 °F 72.0 °F 29.99 in ENE 1.0 mph 5.0 mph 90 % 0.00 in
01:06 75.0 °F 72.0 °F 29.99 in Calm   5.0 mph 90 % 0.00 in
01:11 75.0 °F 72.0 °F 29.99 in East 1.0 mph 5.0 mph 90 % 0.00 in
01:16 75.0 °F 72.0 °F 29.99 in Calm   5.0 mph 90 % 0.00 in
01:21 74.8 °F 71.8 °F 29.99 in Calm   6.0 mph 90 % 0.00 in
01:26 74.8 °F 71.8 °F 29.99 in Calm   6.0 mph 90 % 0.00 in
01:31 74.8 °F 71.8 °F 29.99 in East 1.0 mph 6.0 mph 90 % 0.00 in
01:36 74.8 °F 71.8 °F 29.99 in East 2.0 mph 4.0 mph 90 % 0.00 in
01:41 74.7 °F 71.6 °F 29.99 in Calm   4.0 mph 90 % 0.00 in
01:46 74.7 °F 71.8 °F 29.99 in Calm   5.0 mph 91 % 0.00 in
01:51 74.5 °F 71.6 °F 29.99 in SSE 1.0 mph 5.0 mph 91 % 0.00 in
01:56 74.5 °F 71.6 °F 29.99 in Calm   5.0 mph 91 % 0.00 in
02:01 74.5 °F 71.6 °F 29.99 in Calm   1.0 mph 91 % 0.00 in
02:06 74.3 °F 71.4 °F 29.98 in Calm   1.0 mph 91 % 0.00 in
02:11 74.1 °F 71.2 °F 29.98 in Calm   1.0 mph 91 % 0.00 in
02:16 74.1 °F 71.2 °F 29.97 in Calm   1.0 mph 91 % 0.00 in
02:21 73.9 °F 71.1 °F 29.97 in Calm   1.0 mph 91 % 0.00 in
02:26 73.8 °F 71.2 °F 29.97 in Calm   1.0 mph 92 % 0.00 in
02:31 73.6 °F 71.1 °F 29.97 in Calm   1.0 mph 92 % 0.00 in
02:32 73.6 °F 71.1 °F 29.98 in Calm   1.0 mph 92 % 0.00 in
02:37 73.6 °F 71.1 °F 29.98 in Calm   2.0 mph 92 % 0.00 in
02:42 73.4 °F 70.9 °F 29.98 in Calm   2.0 mph 92 % 0.00 in
02:47 73.2 °F 71.1 °F 29.97 in Calm   2.0 mph 93 % 0.00 in
02:52 73.2 °F 71.1 °F 29.97 in Calm   2.0 mph 93 % 0.00 in
02:58 73.2 °F 71.1 °F 29.97 in East 2.0 mph 3.0 mph 93 % 0.00 in
03:03 73.2 °F 71.1 °F 29.96 in NE 2.0 mph 4.0 mph 93 % 0.00 in
03:08 73.0 °F 70.9 °F 29.97 in Calm   4.0 mph 93 % 0.00 in
03:13 73.0 °F 70.9 °F 29.96 in Calm   4.0 mph 93 % 0.00 in
03:18 72.9 °F 71.1 °F 29.97 in Calm   3.0 mph 94 % 0.00 in
03:23 72.9 °F 71.1 °F 29.97 in Calm   3.0 mph 94 % 0.00 in
03:28 72.9 °F 71.1 °F 29.96 in NNW 1.0 mph 3.0 mph 94 % 0.00 in
03:33 72.7 °F 70.9 °F 29.97 in ENE 1.0 mph 4.0 mph 94 % 0.00 in
03:38 72.7 °F 70.9 °F 29.97 in Calm   4.0 mph 94 % 0.00 in
03:43 72.7 °F 70.9 °F 29.97 in Calm   4.0 mph 94 % 0.00 in
03:48 72.5 °F 70.7 °F 29.97 in Calm   3.0 mph 94 % 0.00 in
03:53 72.5 °F 70.7 °F 29.97 in Calm   2.0 mph 94 % 0.00 in
03:58 72.5 °F 71.1 °F 29.97 in Calm   1.0 mph 95 % 0.00 in
04:03 72.3 °F 70.9 °F 29.97 in Calm   2.0 mph 95 % 0.00 in
04:08 72.3 °F 70.9 °F 29.98 in Calm   2.0 mph 95 % 0.00 in
04:13 72.3 °F 70.9 °F 29.97 in Calm   2.0 mph 95 % 0.00 in
04:18 72.1 °F 70.7 °F 29.97 in Calm   2.0 mph 95 % 0.00 in
04:23 72.1 °F 70.7 °F 29.97 in Calm   2.0 mph 95 % 0.00 in
04:28 72.1 °F 70.7 °F 29.97 in Calm   2.0 mph 95 % 0.00 in
04:33 72.1 °F 70.7 °F 29.98 in Calm   3.0 mph 95 % 0.00 in
04:38 72.0 °F 70.5 °F 29.98 in Calm   3.0 mph 95 % 0.00 in
04:43 72.0 °F 70.5 °F 29.98 in Calm   3.0 mph 95 % 0.00 in
04:48 72.0 °F 70.5 °F 29.98 in Calm   2.0 mph 95 % 0.00 in
04:53 72.0 °F 70.5 °F 29.98 in Calm   1.0 mph 95 % 0.00 in
04:58 72.0 °F 70.5 °F 29.98 in Calm   1.0 mph 95 % 0.00 in
05:03 72.0 °F 70.5 °F 29.98 in Calm   1.0 mph 95 % 0.00 in
05:08 71.8 °F 70.5 °F 29.98 in Calm   1.0 mph 96 % 0.00 in
05:13 71.8 °F 70.5 °F 29.98 in Calm   1.0 mph 96 % 0.00 in
05:18 71.8 °F 70.5 °F 29.98 in Calm   1.0 mph 96 % 0.00 in
05:23 72.0 °F 70.7 °F 29.98 in Calm   3.0 mph 96 % 0.00 in
05:28 72.0 °F 70.7 °F 29.99 in Calm   3.0 mph 96 % 0.00 in
05:34 72.0 °F 70.7 °F 29.99 in Calm   3.0 mph 96 % 0.00 in
05:39 72.0 °F 70.7 °F 29.99 in Calm   2.0 mph 96 % 0.00 in
05:44 72.0 °F 70.7 °F 29.99 in Calm   2.0 mph 96 % 0.00 in
05:49 72.0 °F 70.7 °F 29.99 in North 1.0 mph 2.0 mph 96 % 0.00 in
05:54 72.0 °F 70.7 °F 29.99 in Calm   2.0 mph 96 % 0.00 in
05:59 72.0 °F 70.7 °F 29.99 in Calm   2.0 mph 96 % 0.00 in
06:04 72.0 °F 70.7 °F 29.99 in Calm   2.0 mph 96 % 0.00 in
06:09 72.0 °F 70.7 °F 29.99 in ENE 1.0 mph 2.0 mph 96 % 0.00 in
06:14 72.1 °F 70.9 °F 29.99 in Calm   3.0 mph 96 % 0.00 in
06:19 72.1 °F 70.9 °F 30.00 in NW 2.0 mph 3.0 mph 96 % 0.00 in
06:24 72.1 °F 70.9 °F 30.00 in Calm   3.0 mph 96 % 0.00 in
06:29 72.1 °F 70.9 °F 30.00 in Calm   3.0 mph 96 % 0.00 in
06:34 72.1 °F 70.9 °F 30.00 in Calm   3.0 mph 96 % 0.00 in
06:39 72.1 °F 70.9 °F 30.00 in Calm   2.0 mph 96 % 0.00 in
06:44 72.1 °F 70.9 °F 30.00 in Calm   2.0 mph 96 % 0.00 in
06:49 72.1 °F 70.9 °F 30.00 in Calm   2.0 mph 96 % 0.00 in
06:54 72.1 °F 70.9 °F 30.00 in East 1.0 mph 2.0 mph 96 % 0.00 in
06:59 72.1 °F 70.9 °F 30.00 in East 1.0 mph 2.0 mph 96 % 0.00 in
07:04 72.1 °F 70.9 °F 30.00 in Calm   1.0 mph 96 % 0.00 in
07:14 72.3 °F 71.1 °F 30.00 in Calm   3.0 mph 96 % 0.00 in
07:19 72.3 °F 71.1 °F 30.00 in Calm   3.0 mph 96 % 0.00 in
07:24 72.3 °F 71.1 °F 30.00 in Calm   2.0 mph 96 % 0.00 in
07:29 72.5 °F 71.2 °F 30.00 in Calm   2.0 mph 96 % 0.00 in
07:34 72.7 °F 71.8 °F 30.00 in Calm   2.0 mph 97 % 0.00 in
07:39 72.7 °F 71.4 °F 30.01 in NNE 1.0 mph 1.0 mph 96 % 0.00 in
07:44 72.7 °F 71.4 °F 30.01 in Calm   2.0 mph 96 % 0.00 in
07:49 72.9 °F 71.6 °F 30.01 in Calm   3.0 mph 96 % 0.00 in
07:54 72.9 °F 71.6 °F 30.01 in NNW 1.0 mph 3.0 mph 96 % 0.00 in
07:59 73.0 °F 71.8 °F 30.01 in Calm   3.0 mph 96 % 0.00 in
08:04 73.0 °F 71.8 °F 30.01 in Calm   3.0 mph 96 % 0.00 in
08:09 73.2 °F 72.0 °F 30.01 in Calm   4.0 mph 96 % 0.00 in
08:14 73.4 °F 72.1 °F 30.01 in Calm   4.0 mph 96 % 0.00 in
08:19 73.8 °F 72.5 °F 30.01 in NW 1.0 mph 4.0 mph 96 % 0.00 in
08:25 73.9 °F 72.5 °F 30.01 in Calm   3.0 mph 95 % 0.00 in
08:30 73.9 °F 72.5 °F 30.02 in NNW 2.0 mph 4.0 mph 95 % 0.00 in
08:35 74.1 °F 72.3 °F 30.02 in NNW 2.0 mph 4.0 mph 94 % 0.00 in
08:40 74.3 °F 72.5 °F 30.02 in NNW 1.0 mph 4.0 mph 94 % 0.00 in
08:45 74.7 °F 72.9 °F 30.02 in Calm   4.0 mph 94 % 0.00 in
08:50 74.7 °F 72.5 °F 30.02 in Calm   4.0 mph 93 % 0.00 in
08:55 74.8 °F 72.7 °F 30.02 in East 2.0 mph 4.0 mph 93 % 0.00 in
09:00 74.8 °F 72.7 °F 30.02 in West 1.0 mph 4.0 mph 93 % 0.00 in
09:05 75.0 °F 72.5 °F 30.02 in East 2.0 mph 6.0 mph 92 % 0.00 in
09:10 75.0 °F 72.1 °F 30.02 in SSE 1.0 mph 6.0 mph 91 % 0.00 in
09:15 75.4 °F 72.9 °F 30.02 in Calm   6.0 mph 92 % 0.00 in
09:20 75.9 °F 73.0 °F 30.02 in ENE 1.0 mph 5.0 mph 91 % 0.00 in
09:25 76.3 °F 73.0 °F 30.03 in ENE 2.0 mph 5.0 mph 90 % 0.00 in
09:30 76.3 °F 72.9 °F 30.02 in NW 1.0 mph 5.0 mph 89 % 0.00 in
09:35 76.8 °F 73.0 °F 30.02 in North 2.0 mph 3.0 mph 88 % 0.00 in
09:40 77.0 °F 73.2 °F 30.02 in ENE 2.0 mph 4.0 mph 88 % 0.00 in
09:45 77.2 °F 73.0 °F 30.02 in ENE 2.0 mph 5.0 mph 87 % 0.00 in
09:50 77.2 °F 73.0 °F 30.02 in Calm   5.0 mph 87 % 0.00 in
09:55 77.4 °F 72.9 °F 30.02 in North 1.0 mph 5.0 mph 86 % 0.00 in
09:57 77.4 °F 72.9 °F 30.02 in East 1.0 mph 5.0 mph 86 % 0.00 in
10:02 77.5 °F 73.0 °F 30.02 in Calm   5.0 mph 86 % 0.00 in
10:07 77.7 °F 72.9 °F 30.02 in East 4.0 mph 5.0 mph 85 % 0.00 in
10:12 78.1 °F 73.2 °F 30.02 in Calm   5.0 mph 85 % 0.00 in
10:17 78.3 °F 73.0 °F 30.02 in NW 3.0 mph 6.0 mph 84 % 0.00 in
10:22 78.1 °F 73.2 °F 30.02 in ESE 2.0 mph 6.0 mph 85 % 0.00 in
10:27 78.3 °F 73.0 °F 30.02 in ENE 2.0 mph 6.0 mph 84 % 0.00 in
10:32 78.4 °F 73.2 °F 30.02 in ESE 1.0 mph 5.0 mph 84 % 0.00 in
10:37 78.4 °F 73.2 °F 30.02 in North 2.0 mph 5.0 mph 84 % 0.00 in
10:42 78.6 °F 73.4 °F 30.01 in ENE 3.0 mph 5.0 mph 84 % 0.00 in
10:47 79.2 °F 73.6 °F 30.01 in NNW 2.0 mph 5.0 mph 83 % 0.00 in
10:52 79.3 °F 73.4 °F 30.01 in North 1.0 mph 5.0 mph 82 % 0.00 in
10:57 79.5 °F 73.6 °F 30.01 in Calm   5.0 mph 82 % 0.00 in
11:02 79.9 °F 74.3 °F 30.01 in NNW 3.0 mph 5.0 mph 83 % 0.00 in
11:07 80.8 °F 73.9 °F 30.01 in NW 2.0 mph 5.0 mph 80 % 0.00 in
11:12 81.1 °F 73.9 °F 30.01 in ENE 4.0 mph 5.0 mph 79 % 0.00 in
11:13 81.1 °F 73.6 °F 30.01 in Calm   5.0 mph 78 % 0.00 in
11:18 81.7 °F 74.1 °F 30.01 in North 1.0 mph 4.0 mph 78 % 0.00 in
11:23 81.7 °F 74.1 °F 30.01 in North 2.0 mph 5.0 mph 78 % 0.00 in
11:28 82.0 °F 74.5 °F 30.01 in WNW 1.0 mph 5.0 mph 78 % 0.00 in
11:33 82.6 °F 74.3 °F 30.01 in NNE 2.0 mph 6.0 mph 76 % 0.00 in
11:39 82.6 °F 74.7 °F 30.01 in NNW 3.0 mph 6.0 mph 77 % 0.00 in
11:44 82.9 °F 74.1 °F 30.01 in Calm   6.0 mph 75 % 0.00 in
11:49 83.8 °F 75.0 °F 30.01 in Calm   5.0 mph 75 % 0.00 in
11:54 84.0 °F 74.8 °F 30.01 in East 4.0 mph 5.0 mph 74 % 0.00 in
11:59 84.2 °F 74.7 °F 30.01 in North 3.0 mph 6.0 mph 73 % 0.00 in
12:04 84.7 °F 75.2 °F 30.01 in East 4.0 mph 6.0 mph 73 % 0.00 in
12:09 84.6 °F 73.8 °F 30.01 in ENE 1.0 mph 6.0 mph 70 % 0.00 in
12:14 84.7 °F 74.3 °F 30.01 in NNW 3.0 mph 6.0 mph 71 % 0.00 in
12:19 85.3 °F 74.8 °F 30.01 in ESE 2.0 mph 6.0 mph 71 % 0.00 in
12:24 85.3 °F 74.3 °F 30.01 in Calm   9.0 mph 70 % 0.00 in
12:29 85.6 °F 73.4 °F 30.00 in ENE 2.0 mph 9.0 mph 67 % 0.00 in
12:34 85.5 °F 74.1 °F 30.00 in Calm   9.0 mph 69 % 0.00 in
12:39 85.5 °F 75.0 °F 30.00 in NE 3.0 mph 6.0 mph 71 % 0.00 in
12:49 85.3 °F 73.9 °F 30.00 in North 2.0 mph 5.0 mph 69 % 0.00 in
12:54 85.1 °F 74.1 °F 30.00 in ESE 4.0 mph 6.0 mph 70 % 0.00 in
12:59 84.6 °F 74.1 °F 29.99 in SW 2.0 mph 6.0 mph 71 % 0.00 in
13:04 84.7 °F 74.3 °F 29.99 in Calm   6.0 mph 71 % 0.00 in
13:09 84.9 °F 74.5 °F 29.99 in SSE 2.0 mph 6.0 mph 71 % 0.00 in
13:14 84.6 °F 73.8 °F 29.99 in ENE 1.0 mph 7.0 mph 70 % 0.00 in
13:19 84.4 °F 74.3 °F 29.99 in ESE 3.0 mph 7.0 mph 72 % 0.00 in
13:24 84.9 °F 74.1 °F 29.99 in NNW 1.0 mph 7.0 mph 70 % 0.00 in
13:29 85.8 °F 73.6 °F 29.99 in SW 2.0 mph 7.0 mph 67 % 0.00 in
13:34 85.8 °F 73.9 °F 29.99 in Calm   7.0 mph 68 % 0.00 in
13:39 85.5 °F 73.2 °F 29.99 in ESE 2.0 mph 6.0 mph 67 % 0.00 in
13:44 85.5 °F 74.1 °F 29.99 in Calm   7.0 mph 69 % 0.00 in
13:49 86.2 °F 73.9 °F 29.99 in ESE 5.0 mph 7.0 mph 67 % 0.00 in
13:54 85.6 °F 73.4 °F 29.98 in East 7.0 mph 8.0 mph 67 % 0.00 in
13:59 85.6 °F 74.3 °F 29.98 in ESE 3.0 mph 9.0 mph 69 % 0.00 in
14:04 86.0 °F 74.7 °F 29.98 in ESE 6.0 mph 9.0 mph 69 % 0.00 in
14:09 86.4 °F 74.1 °F 29.98 in ESE 5.0 mph 9.0 mph 67 % 0.00 in
14:14 86.4 °F 73.6 °F 29.98 in ENE 2.0 mph 9.0 mph 66 % 0.00 in
14:19 86.9 °F 73.8 °F 29.98 in SE 6.0 mph 10.0 mph 65 % 0.00 in
14:24 86.5 °F 73.4 °F 29.98 in SSE 2.0 mph 10.0 mph 65 % 0.00 in
14:29 86.7 °F 72.7 °F 29.97 in ESE 6.0 mph 10.0 mph 63 % 0.00 in
14:34 86.7 °F 73.9 °F 29.97 in North 3.0 mph 10.0 mph 66 % 0.00 in
14:39 87.4 °F 74.7 °F 29.97 in SE 3.0 mph 10.0 mph 66 % 0.00 in
14:44 88.2 °F 73.9 °F 29.97 in SE 4.0 mph 9.0 mph 63 % 0.00 in
14:54 87.8 °F 72.7 °F 29.97 in ENE 4.0 mph 7.0 mph 61 % 0.00 in
14:59 87.1 °F 72.9 °F 29.96 in SSE 1.0 mph 10.0 mph 63 % 0.00 in
15:04 87.4 °F 72.3 °F 29.96 in East 4.0 mph 10.0 mph 61 % 0.00 in
15:09 87.4 °F 72.9 °F 29.96 in Calm   10.0 mph 62 % 0.00 in
15:14 87.6 °F 72.0 °F 29.96 in Calm   8.0 mph 60 % 0.00 in
15:19 87.8 °F 71.6 °F 29.97 in East 2.0 mph 8.0 mph 59 % 0.00 in
15:24 87.8 °F 71.6 °F 29.96 in SSE 2.0 mph 9.0 mph 59 % 0.00 in
15:29 88.0 °F 72.9 °F 29.96 in SSE 1.0 mph 9.0 mph 61 % 0.00 in
15:34 88.3 °F 72.7 °F 29.96 in NW 2.0 mph 9.0 mph 60 % 0.00 in
15:39 88.3 °F 72.1 °F 29.96 in East 2.0 mph 8.0 mph 59 % 0.00 in
15:44 88.2 °F 73.0 °F 29.96 in East 5.0 mph 5.0 mph 61 % 0.00 in
15:49 88.2 °F 72.5 °F 29.96 in SE 1.0 mph 6.0 mph 60 % 0.00 in
15:54 87.8 °F 71.6 °F 29.96 in Calm   7.0 mph 59 % 0.00 in
15:59 87.6 °F 72.5 °F 29.95 in Calm   9.0 mph 61 % 0.00 in
16:04 87.6 °F 72.5 °F 29.95 in SE 3.0 mph 9.0 mph 61 % 0.00 in
16:09 87.4 °F 71.8 °F 29.95 in Calm   9.0 mph 60 % 0.00 in
16:14 87.6 °F 72.0 °F 29.94 in ESE 1.0 mph 7.0 mph 60 % 0.00 in
16:19 88.2 °F 73.0 °F 29.94 in East 1.0 mph 7.0 mph 61 % 0.00 in
16:24 88.3 °F 73.2 °F 29.94 in ESE 1.0 mph 7.0 mph 61 % 0.00 in
16:29 88.3 °F 72.7 °F 29.94 in North 1.0 mph 6.0 mph 60 % 0.00 in
16:34 87.8 °F 71.6 °F 29.94 in NE 1.0 mph 6.0 mph 59 % 0.00 in
16:39 88.0 °F 72.3 °F 29.94 in NE 2.0 mph 6.0 mph 60 % 0.00 in
16:44 88.3 °F 73.2 °F 29.93 in ESE 3.0 mph 6.0 mph 61 % 0.00 in
16:49 88.2 °F 71.6 °F 29.93 in East 6.0 mph 6.0 mph 58 % 0.00 in
16:55 87.6 °F 71.6 °F 29.93 in ENE 3.0 mph 6.0 mph 59 % 0.00 in
17:00 87.4 °F 71.4 °F 29.93 in Calm   6.0 mph 59 % 0.00 in
17:05 87.3 °F 71.6 °F 29.93 in East 3.0 mph 6.0 mph 60 % 0.00 in
17:10 87.3 °F 71.6 °F 29.93 in ESE 1.0 mph 5.0 mph 60 % 0.00 in
17:15 87.3 °F 71.6 °F 29.93 in East 2.0 mph 5.0 mph 60 % 0.00 in
17:20 87.1 °F 72.0 °F 29.92 in NE 2.0 mph 5.0 mph 61 % 0.00 in
17:25 87.1 °F 72.0 °F 29.92 in ESE 1.0 mph 5.0 mph 61 % 0.00 in
17:30 86.9 °F 72.3 °F 29.92 in NE 2.0 mph 5.0 mph 62 % 0.00 in
17:35 86.9 °F 71.8 °F 29.93 in Calm   5.0 mph 61 % 0.00 in
17:40 86.7 °F 71.6 °F 29.92 in ENE 1.0 mph 5.0 mph 61 % 0.00 in
17:45 86.7 °F 71.6 °F 29.92 in Calm   5.0 mph 61 % 0.00 in
17:50 86.7 °F 71.6 °F 29.93 in Calm   5.0 mph 61 % 0.00 in
17:55 86.7 °F 72.1 °F 29.93 in SE 2.0 mph 6.0 mph 62 % 0.00 in
18:00 86.5 °F 72.0 °F 29.93 in NE 1.0 mph 6.0 mph 62 % 0.00 in
18:05 86.7 °F 72.1 °F 29.93 in Calm   6.0 mph 62 % 0.00 in
18:10 86.7 °F 72.1 °F 29.93 in Calm   6.0 mph 62 % 0.00 in
18:15 86.9 °F 72.3 °F 29.93 in ESE 3.0 mph 7.0 mph 62 % 0.00 in
18:16 86.9 °F 72.3 °F 29.93 in NE 2.0 mph 7.0 mph 62 % 0.00 in
18:21 86.7 °F 72.1 °F 29.93 in Calm   7.0 mph 62 % 0.00 in
18:26 86.5 °F 72.0 °F 29.93 in Calm   7.0 mph 62 % 0.00 in
18:31 86.5 °F 72.0 °F 29.93 in SE 1.0 mph 5.0 mph 62 % 0.00 in
18:36 86.4 °F 72.3 °F 29.93 in East 1.0 mph 6.0 mph 63 % 0.00 in
18:41 86.2 °F 72.5 °F 29.93 in Calm   6.0 mph 64 % 0.00 in
18:46 85.8 °F 72.7 °F 29.93 in East 3.0 mph 6.0 mph 65 % 0.00 in
18:51 85.6 °F 73.0 °F 29.93 in SE 2.0 mph 6.0 mph 66 % 0.00 in
18:56 85.5 °F 73.2 °F 29.94 in East 6.0 mph 7.0 mph 67 % 0.00 in
19:01 85.1 °F 72.9 °F 29.94 in SSE 6.0 mph 8.0 mph 67 % 0.00 in
19:06 84.7 °F 73.0 °F 29.94 in East 2.0 mph 8.0 mph 68 % 0.00 in
19:11 84.7 °F 73.4 °F 29.94 in ESE 6.0 mph 8.0 mph 69 % 0.00 in
19:16 84.6 °F 73.2 °F 29.94 in ESE 6.0 mph 8.0 mph 69 % 0.00 in
19:21 84.4 °F 73.0 °F 29.94 in SE 2.0 mph 8.0 mph 69 % 0.00 in
19:26 84.2 °F 72.9 °F 29.94 in SSE 3.0 mph 8.0 mph 69 % 0.00 in
19:31 84.0 °F 72.7 °F 29.94 in SE 4.0 mph 8.0 mph 69 % 0.00 in
19:32 84.0 °F 72.7 °F 29.94 in ESE 4.0 mph 8.0 mph 69 % 0.00 in
19:37 84.0 °F 72.7 °F 29.94 in SSE 3.0 mph 8.0 mph 69 % 0.00 in
19:42 84.0 °F 72.7 °F 29.94 in SE 4.0 mph 8.0 mph 69 % 0.00 in
19:47 83.8 °F 72.5 °F 29.94 in ESE 1.0 mph 8.0 mph 69 % 0.00 in
19:48 83.8 °F 73.0 °F 29.94 in East 4.0 mph 8.0 mph 70 % 0.00 in
19:53 83.8 °F 73.0 °F 29.94 in SE 1.0 mph 8.0 mph 70 % 0.00 in
19:58 83.7 °F 72.3 °F 29.94 in ESE 4.0 mph 8.0 mph 69 % 0.00 in
20:03 83.5 °F 72.7 °F 29.94 in SE 2.0 mph 6.0 mph 70 % 0.00 in
20:08 83.3 °F 72.5 °F 29.94 in SE 1.0 mph 6.0 mph 70 % 0.00 in
20:13 83.1 °F 72.7 °F 29.94 in SE 2.0 mph 6.0 mph 71 % 0.00 in
20:18 82.9 °F 73.0 °F 29.94 in SE 1.0 mph 6.0 mph 72 % 0.00 in
20:23 82.9 °F 73.0 °F 29.94 in SSE 2.0 mph 5.0 mph 72 % 0.00 in
20:28 82.8 °F 73.2 °F 29.94 in SW 2.0 mph 5.0 mph 73 % 0.00 in
20:33 82.6 °F 73.0 °F 29.94 in Calm   4.0 mph 73 % 0.00 in
20:38 82.2 °F 73.0 °F 29.93 in Calm   4.0 mph 74 % 0.00 in
20:43 82.0 °F 72.9 °F 29.93 in Calm   4.0 mph 74 % 0.00 in
20:48 81.9 °F 72.7 °F 29.94 in Calm   4.0 mph 74 % 0.00 in
20:53 81.7 °F 73.0 °F 29.94 in Calm   2.0 mph 75 % 0.00 in
20:59 81.7 °F 73.0 °F 29.94 in Calm   2.0 mph 75 % 0.00 in
21:04 81.5 °F 72.9 °F 29.94 in Calm   2.0 mph 75 % 0.00 in
21:09 81.3 °F 73.0 °F 29.94 in Calm   2.0 mph 76 % 0.00 in
21:14 81.1 °F 72.9 °F 29.94 in Calm   2.0 mph 76 % 0.00 in
21:19 81.1 °F 72.9 °F 29.95 in ESE 1.0 mph 2.0 mph 76 % 0.00 in
21:29 81.1 °F 73.2 °F 29.95 in ENE 2.0 mph 3.0 mph 77 % 0.00 in
21:34 81.0 °F 73.0 °F 29.96 in Calm   3.0 mph 77 % 0.00 in
21:39 81.0 °F 73.0 °F 29.96 in SE 2.0 mph 3.0 mph 77 % 0.00 in
21:44 80.8 °F 73.2 °F 29.96 in ESE 2.0 mph 3.0 mph 78 % 0.00 in
21:49 80.8 °F 73.2 °F 29.96 in Calm   3.0 mph 78 % 0.00 in
21:54 80.6 °F 73.0 °F 29.97 in Calm   2.0 mph 78 % 0.00 in
21:59 80.4 °F 73.2 °F 29.97 in SSW 1.0 mph 2.0 mph 79 % 0.00 in
22:04 80.1 °F 73.4 °F 29.97 in SE 4.0 mph 4.0 mph 80 % 0.00 in
22:09 80.2 °F 73.9 °F 29.97 in SE 2.0 mph 5.0 mph 81 % 0.00 in
22:14 80.2 °F 73.9 °F 29.97 in SSE 2.0 mph 5.0 mph 81 % 0.00 in
22:19 80.2 °F 74.3 °F 29.97 in South 2.0 mph 5.0 mph 82 % 0.00 in
22:24 80.2 °F 74.3 °F 29.98 in South 3.0 mph 5.0 mph 82 % 0.00 in
22:29 80.1 °F 74.1 °F 29.98 in SSE 3.0 mph 5.0 mph 82 % 0.00 in
22:34 80.1 °F 74.5 °F 29.98 in SSE 2.0 mph 7.0 mph 83 % 0.00 in
22:39 80.1 °F 74.5 °F 29.98 in SE 1.0 mph 7.0 mph 83 % 0.00 in
22:44 79.9 °F 74.3 °F 29.99 in South 1.0 mph 7.0 mph 83 % 0.00 in
22:49 79.9 °F 74.7 °F 29.99 in SSW 1.0 mph 6.0 mph 84 % 0.00 in
22:54 79.5 °F 74.3 °F 29.99 in SSE 2.0 mph 5.0 mph 84 % 0.00 in
22:59 79.5 °F 74.7 °F 29.99 in Calm   4.0 mph 85 % 0.00 in
23:04 79.3 °F 74.5 °F 29.99 in Calm   4.0 mph 85 % 0.00 in
23:09 79.3 °F 74.8 °F 29.99 in SSE 3.0 mph 3.0 mph 86 % 0.00 in
23:14 79.2 °F 74.7 °F 29.99 in South 1.0 mph 3.0 mph 86 % 0.00 in
23:19 79.2 °F 74.7 °F 29.99 in SSW 2.0 mph 3.0 mph 86 % 0.00 in
23:24 79.3 °F 74.8 °F 29.99 in South 3.0 mph 3.0 mph 86 % 0.00 in
23:29 79.3 °F 74.8 °F 29.99 in SSW 2.0 mph 4.0 mph 86 % 0.00 in
23:34 79.3 °F 75.2 °F 29.99 in SSE 4.0 mph 5.0 mph 87 % 0.00 in
23:39 79.3 °F 75.2 °F 29.99 in SSE 1.0 mph 6.0 mph 87 % 0.00 in
23:44 79.2 °F 75.4 °F 29.99 in SSE 2.0 mph 6.0 mph 88 % 0.00 in
23:49 79.0 °F 75.4 °F 29.99 in SW 1.0 mph 6.0 mph 89 % 0.00 in
23:50 79.0 °F 75.4 °F 29.99 in SSW 2.0 mph 6.0 mph 89 % 0.00 in
23:55 78.6 °F 75.0 °F 29.99 in South 1.0 mph 6.0 mph 89 % 0.00 in
Spring, Texas: Villages of Bridgestone
Compliments of Weather Underground - 2.75 mb

Script developed by  Jim McMurry - jmcmurry@mwt.net Adapted for the template by  Wim van der Kuil - Leuven-Template.eu

You find our weather info also at:

UK Metoffice

WeatherCloud

Weather Underground

Mid-South Weather Network

AWEKAS

Citizen Weather Observer Program (CWOP)

HAMweather, WeatherForYou, PWS Weather

Equipment we use:

Weather-station
Davis Vantage Vue

Weather-program
Meteohub

Weather-server
Debian 7.9 x86 (Guest)

Provider
DreamHost

Davis Vantage Vue

Meteohub

Debian 7.9 x86 (Guest)

DreamHost